AL7BX-WX Weather Reports


time (UTC)temp
F
wind
direction
speed
knots
gust
knots
rain 1hr
in
rain 24hr
in
rain mn
in
humidity
%
barometer
mb
20260903142703 61 195 1.7 6.1 0.00 0.00 0.00 28
20260903141803 58 248 0.9 3.5 0.00 0.00 0.00 32
20260903141113 57 254 1.7 3.5 0.00 0.00 0.00 33
20260903140003 57 198 1.7 4.3 0.00 0.00 0.00 36
20260903135403 56 151 2.6 5.2 0.00 0.00 0.00 34
20260903134503 52 191 0.9 5.2 0.00 0.00 0.00 34
20260903133603 51 220 0.0 1.7 0.00 0.00 0.00 38
20260903132703 51 220 0.0 2.6 0.00 0.00 0.00 40
20260903132013 50 220 0.9 2.6 0.00 0.00 0.00 40
20260903130904 49 220 0.0 1.7 0.00 0.00 0.00 41
20260903130003 49 220 0.9 2.6 0.00 0.00 0.00 42
20260903125403 49 220 0.9 2.6 0.00 0.00 0.00 41
20260903124503 49 211 0.9 3.5 0.00 0.00 0.00 42
20260903123814 49 0 0.0 0.0 0.00 0.00 0.00 43
20260903122703 48 163 0.0 2.6 0.00 0.00 0.00 43
20260903121803 48 0 0.0 0.0 0.00 0.00 0.00 44
20260903120903 48 0 0.0 0.0 0.00 0.00 0.00 42
20260903120003 49 163 0.0 0.9 0.00 0.00 0.00 41
20260903115403 50 163 0.0 0.9 0.00 0.00 0.00 40
20260903114503 51 163 0.0 1.7 0.00 0.00 0.00 39
20260903113814 52 163 0.0 0.9 0.00 0.00 0.00 37
20260903112913 53 0 0.0 0.0 0.00 0.00 0.00 36
20260903111803 56 163 0.9 2.6 0.00 0.00 0.00 32
20260903110903 58 163 0.9 2.6 0.00 0.00 0.00 31
20260903110003 59 176 1.7 5.2 0.00 0.00 0.00 28
20260903105403 59 177 1.7 7.8 0.00 0.00 0.00 28
20260903104714 59 174 1.7 7.8 0.00 0.00 0.00 27
20260903103813 59 181 1.7 4.3 0.00 0.00 0.00 27
20260903102703 60 180 1.7 6.1 0.00 0.00 0.00 27
20260903101803 60 162 1.7 5.2 0.00 0.00 0.00 27
20260903100903 60 156 2.6 6.1 0.00 0.00 0.00 27
20260903100212 60 148 2.6 6.1 0.00 0.00 0.00 27
20260903095403 59 139 2.6 6.1 0.00 0.00 0.00 28
20260903094503 55 136 1.7 4.3 0.00 0.00 0.00 32
20260903093603 52 330 0.0 1.7 0.00 0.00 0.00 36
20260903092703 52 0 0.0 0.0 0.00 0.00 0.00 39
20260903091803 52 330 0.9 3.5 0.00 0.00 0.00 40
20260903090903 52 330 0.9 3.5 0.00 0.00 0.00 42
20260903090003 53 330 0.9 2.6 0.00 0.00 0.00 42
20260903085614 54 330 0.9 2.6 0.00 0.00 0.00 41
20260903084503 54 330 0.9 2.6 0.00 0.00 0.00 37
20260903083603 53 330 0.9 2.6 0.00 0.00 0.00 37
20260903082703 53 330 0.9 1.7 0.00 0.00 0.00 38
20260903081803 53 330 0.0 1.7 0.00 0.00 0.00 37
20260903081113 54 0 0.0 0.0 0.00 0.00 0.00 36
20260903080004 54 330 0.9 1.7 0.00 0.00 0.00 35
20260903075403 55 330 0.9 1.7 0.00 0.00 0.00 33
20260903074503 56 330 1.7 3.5 0.00 0.00 0.00 33
20260903073603 56 330 2.6 6.1 0.00 0.00 0.00 34
20260903072913 56 333 3.5 5.2 0.00 0.00 0.00 34
20260903071803 56 332 2.6 6.1 0.00 0.00 0.00 35
20260903070903 55 257 1.7 6.1 0.00 0.00 0.00 33
20260903070004 56 217 1.7 3.5 0.00 0.00 0.00 35
20260903065403 57 217 1.7 3.5 0.00 0.00 0.00 32
20260903064503 58 217 1.7 2.6 0.00 0.00 0.00 29
20260903063603 59 216 0.9 3.5 0.00 0.00 0.00 27
20260903062703 59 216 0.9 3.5 0.00 0.00 0.00 26
20260903061803 60 213 1.7 3.5 0.00 0.00 0.00 26
20260903060903 61 184 2.6 6.1 0.00 0.00 0.00 26
20260903060007 61 155 1.7 4.3 0.00 0.00 0.00 25
20260903055613 62 168 1.7 4.3 0.00 0.00 0.00 25
20260903054714 61 183 2.6 5.2 0.00 0.00 0.00 25
20260903053603 62 233 0.9 3.5 0.00 0.00 0.00 24
20260903052703 64 215 0.9 4.3 0.00 0.00 0.00 23
20260903052014 65 179 1.7 4.3 0.00 0.00 0.00 24
20260903050903 65 152 2.6 6.1 0.00 0.00 0.00 21
20260903050003 64 142 2.6 5.2 0.00 0.00 0.00 22
20260903045403 64 148 1.7 4.3 0.00 0.00 0.00 23
20260903044714 64 149 1.7 3.5 0.00 0.00 0.00 23
20260903043603 63 149 1.7 4.3 0.00 0.00 0.00 23
20260903042703 63 185 0.9 3.5 0.00 0.00 0.00 23
20260903041803 63 188 0.9 2.6 0.00 0.00 0.00 23
20260903040903 63 190 1.7 4.3 0.00 0.00 0.00 23
20260903040212 64 192 1.7 3.5 0.00 0.00 0.00 24
20260903035614 64 194 2.6 4.3 0.00 0.00 0.00 23
20260903034503 65 196 2.6 5.2 0.00 0.00 0.00 22
20260903033603 65 187 2.6 5.2 0.00 0.00 0.00 22
20260903032703 65 184 2.6 4.3 0.00 0.00 0.00 23
20260903032013 65 181 2.6 5.2 0.00 0.00 0.00 23
20260903030903 66 176 2.6 5.2 0.00 0.00 0.00 22
20260903030004 67 194 3.5 8.7 0.00 0.00 0.00 22
20260903025403 68 189 4.3 9.6 0.00 0.00 0.00 21
20260903024503 68 176 4.3 9.6 0.00 0.00 0.00 21
20260903023603 68 182 3.5 5.2 0.00 0.00 0.00 21
20260903022703 69 177 2.6 6.1 0.00 0.00 0.00 21
20260903022013 69 182 2.6 6.1 0.00 0.00 0.00 20
20260903020903 70 185 3.5 9.6 0.00 0.00 0.00 20
20260903020003 72 188 4.3 9.6 0.00 0.00 0.00 19
20260903015613 72 186 4.3 10.4 0.00 0.00 0.00 19
20260903014503 73 188 6.1 17.4 0.00 0.00 0.00 18
20260903013814 74 190 6.1 13.0 0.00 0.00 0.00 18
20260903012704 75 183 7.8 14.8 0.00 0.00 0.00 17
20260903011803 75 190 7.8 16.5 0.00 0.00 0.00 17
20260903010903 76 191 7.8 16.5 0.00 0.00 0.00 17
20260903010213 76 188 9.6 24.3 0.00 0.00 0.00 16
20260903005403 77 189 7.8 19.1 0.00 0.00 0.00 17
20260903004503 77 191 7.0 17.4 0.00 0.00 0.00 17
20260903003603 78 180 8.7 19.1 0.00 0.00 0.00 17
20260903002703 78 184 8.7 19.1 0.00 0.00 0.00 17
20260903001803 78 185 11.3 21.7 0.00 0.00 0.00 17
20260903000903 78 190 8.7 20.9 0.00 0.00 0.00 17
20260903000003 79 186 9.6 20.9 0.00 0.00 0.00 18
20260902235403 78 185 10.4 18.2 0.00 0.00 0.00 19
20260902234503 79 190 10.4 20.9 0.00 0.00 0.00 18
20260902233603 79 184 10.4 22.6 0.00 0.00 0.00 18
20260902232703 79 186 10.4 20.9 0.00 0.00 0.00 19
20260902231803 79 184 11.3 22.6 0.00 0.00 0.00 18
20260902230903 80 185 11.3 26.1 0.00 0.00 0.00 18
20260902230003 80 192 10.4 26.1 0.00 0.00 0.00 18
20260902225403 80 198 9.6 18.2 0.00 0.00 0.00 18
20260902224713 80 187 10.4 21.7 0.00 0.00 0.00 20
20260902223603 80 190 12.2 23.5 0.00 0.00 0.00 18
20260902222703 79 192 12.2 22.6 0.00 0.00 0.00 21
20260902221803 79 197 11.3 22.6 0.00 0.00 0.00 22
20260902221113 79 204 11.3 21.7 0.00 0.00 0.00 21
20260902220003 80 185 11.3 26.1 0.00 0.00 0.00 21
20260902215403 80 188 9.6 19.1 0.00 0.00 0.00 21
20260902214503 80 184 10.4 21.7 0.00 0.00 0.00 21
20260902213603 79 182 13.0 24.3 0.00 0.00 0.00 22
20260902212703 79 193 12.2 25.2 0.00 0.00 0.00 21
20260902211803 80 183 11.3 24.3 0.00 0.00 0.00 22
20260902210903 80 193 10.4 24.3 0.00 0.00 0.00 24
20260902210003 80 184 11.3 25.2 0.00 0.00 0.00 21
20260902205403 80 176 10.4 23.5 0.00 0.00 0.00 22
20260902204503 80 179 10.4 21.7 0.00 0.00 0.00 23
20260902203814 80 183 9.6 22.6 0.00 0.00 0.00 23
20260902202703 79 179 11.3 31.3 0.00 0.00 0.00 22
20260902202013 79 180 11.3 24.3 0.00 0.00 0.00 23
20260902200903 80 185 10.4 20.9 0.00 0.00 0.00 24
20260902200003 79 183 11.3 21.7 0.00 0.00 0.00 25
20260902195403 79 177 11.3 23.5 0.00 0.00 0.00 24
20260902194503 79 168 11.3 21.7 0.00 0.00 0.00 24
20260902193603 79 171 9.6 20.0 0.00 0.00 0.00 25
20260902192703 78 166 10.4 25.2 0.00 0.00 0.00 28
20260902192012 78 174 11.3 22.6 0.00 0.00 0.00 26
20260902190903 77 182 11.3 19.1 0.00 0.00 0.00 29
20260902190003 77 171 13.0 26.1 0.00 0.00 0.00 27
20260902185403 77 179 12.2 26.1 0.00 0.00 0.00 26
20260902184503 77 189 11.3 25.2 0.00 0.00 0.00 27
20260902183603 77 179 10.4 24.3 0.00 0.00 0.00 34
20260902182703 77 186 9.6 23.5 0.00 0.00 0.00 33
20260902181803 76 179 10.4 20.9 0.00 0.00 0.00 32
20260902180903 76 176 10.4 20.9 0.00 0.00 0.00 33
20260902180005 76 184 9.6 20.0 0.00 0.00 0.00 33
20260902175403 76 187 9.6 20.9 0.00 0.00 0.00 33
20260902174503 76 177 9.6 20.0 0.00 0.00 0.00 33
20260902173603 75 172 8.7 18.2 0.00 0.00 0.00 35
20260902172703 75 176 9.6 18.2 0.00 0.00 0.00 36
20260902171803 75 160 9.6 20.9 0.00 0.00 0.00 36
20260902170903 74 162 10.4 27.8 0.00 0.00 0.00 37
20260902170004 74 149 10.4 22.6 0.00 0.00 0.00 35
20260902165403 74 146 11.3 21.7 0.00 0.00 0.00 38
20260902164503 74 155 8.7 17.4 0.00 0.00 0.00 37
20260902163603 73 153 8.7 18.2 0.00 0.00 0.00 41
20260902162914 73 153 8.7 20.0 0.00 0.00 0.00 43
20260902161803 72 148 9.6 18.2 0.00 0.00 0.00 42
20260902160903 72 152 8.7 22.6 0.00 0.00 0.00 42
20260902160004 71 141 10.4 26.1 0.00 0.00 0.00 43
20260902155613 72 141 9.6 26.1 0.00 0.00 0.00 42
20260902154503 71 145 8.7 23.5 0.00 0.00 0.00 45
20260902153603 70 141 8.7 16.5 0.00 0.00 0.00 45
20260902152703 70 152 9.6 20.0 0.00 0.00 0.00 46
20260902151803 70 156 8.7 16.5 0.00 0.00 0.00 47
20260902150903 70 151 8.7 19.1 0.00 0.00 0.00 46
20260902150003 69 147 7.8 17.4 0.00 0.00 0.00 47
20260902145403 69 149 7.8 15.6 0.00 0.00 0.00 48
20260902144503 68 158 7.0 19.1 0.00 0.00 0.00 49
20260902143603 66 177 5.2 23.5 0.00 0.00 0.00 52